Content
SEND FEEDBACK

Daily
Averages
Monthly
Summary
Mexico

CANCUN, QUINTANA ROO


Home > North America > Mexico > Quintana Roo
Elevation: 30 feet     Latitude: 21 09N     Longitude: 086 49W

WEATHER
 
SELECT A DAY
Number of Records: 167,908;   Date Range: 1/1/95 - 12/24/14
 
SHARE

PRINT THIS DATA

[ ← Previous Day ]
WEATHER ALMANAC - JULY 3, 2013
[ Next Day → ]
[ °C ]   °F
Weather ElementAverageHighLow
Temperature77.1 °F82.4 °F (7:44 am)71.6 °F (9:46 pm)
Dewpoint74.4 °F77 °F (8:45 am)71.6 °F (11:22 am)
Humidity91.7 %100 % (2:43 am)79 % (7:44 am)
Barometer27.78 in30.03 in (11:40 pm) (7:00 pm)
Wind Speed7.6 mph16.1 mph (10:40 am)
Weather ElementAverage
Visibility5 mi
Wind DirectionSE (139.2 °)

Weather ElementTotal
Precipitation---
Cooling Degree Days12 (Base 65)
Growing Degree Days27 (Base 50)
Averaged from 26 records on July 3, 2013
WEATHER CONDITIONS BREAKOUT
WIND DIRECTION BREAKOUT
WEATHER BY HOUR - JULY 3, 2013
[ °C ]   °F
Local TimeTemperatureDewpointHumidityBarometerVisibilityWind DirectionWind SpeedGust SpeedPrecipitationEventsConditions
1:44 AM77.0 °F75.2 °F94 %29.96 in5.0 miCalmRainLight Rain
2:43 AM75.2 °F75.2 °F100 %29.93 in5.0 miCalmOvercast
3:46 AM75.2 °F73.4 °F94 %29.89 in5.0 miESE (120°)10.4 mphOvercast
4:45 AM75.2 °F73.4 °F94 %29.91 in5.0 miESE (120°)9.2 mphOvercast
5:44 AM75.2 °F73.4 °F94 %29.92 in5.0 miESE (120°)6.9 mphRainLight Rain
6:43 AM78.8 °F75.2 °F89 %29.92 in6.0 miSSE (150°)5.8 mphMostly Cloudy
7:44 AM82.4 °F75.2 °F79 %29.96 in6.0 miSSE (150°)9.2 mphMostly Cloudy
8:45 AM82.4 °F77.0 °F84 %29.96 in2.0 miSE (130°)12.7 mphRainRain
9:01 AM80.6 °F77.0 °F89 %29.97 in4.0 miSE (130°)12.7 mphRainLight Rain
9:40 AM77.0 °F75.2 °F94 %29.99 in4.0 miSSE (160°)8.1 mphRainLight Rain
10:40 AM77.0 °F73.4 °F89 %30.00 in4.0 miSW (230°)16.1 mphRainLight Rain
11:22 AM73.4 °F71.6 °F94 %4.0 miSW (230°)2.3 mphOvercast
11:40 AM73.4 °F71.6 °F94 %30.01 in6.0 miCalmOvercast
12:40 PM77.0 °F75.2 °F94 %29.99 in6.0 miSSE (150°)10.4 mphOvercast
1:40 PM78.8 °F77.0 °F94 %29.98 in6.0 miSE (130°)13.8 mphRainLight Rain
2:40 PM80.6 °F77.0 °F89 %29.97 in6.0 miSE (130°)9.2 mphRainLight Rain
3:40 PM80.6 °F73.4 °F79 %29.94 in6.0 miSE (130°)13.8 mphOvercast
4:40 PM82.4 °F75.2 °F79 %29.94 in6.0 miSE (140°)10.4 mphOvercast
5:41 PM78.8 °F75.2 °F89 %29.96 in6.0 miEast (100°)9.2 mphOvercast
6:24 PM78.8 °F75.2 °F89 %4.0 miSE (130°)12.7 mphRainRain
6:45 PM77.0 °F75.2 °F94 %29.97 in5.0 miEast (80°)4.6 mphOvercast
7:41 PM77.0 °F75.2 °F94 %29.97 in4.0 miEast (80°)3.5 mphRainLight Rain
8:40 PM73.4 °F71.6 °F94 %29.99 in3.0 miENE (60°)5.8 mphRainRain
9:46 PM71.6 °F71.6 °F100 %30.00 in5.0 miNorth (350°)4.6 mphRainLight Rain
10:42 PM73.4 °F73.4 °F100 %30.02 in5.0 miWNW (300°)2.3 mphRainLight Rain
11:40 PM73.4 °F73.4 °F100 %30.03 in6.0 miWNW (300°)4.6 mphOvercast
Hourly data recorded from MMUN, located miles away from Cancun, Quintana Roo







STORIES FROM OUR PARTNERS